This is the latest recevied weather packets stored in our database for station/object KM4KMS. If no packets are shown the sender has not sent any weather packets the latest 10 day(s).
| Time | Temp. | Humidity | Pressure | Rain* | Wind** | Luminosity | Snow |
|---|---|---|---|---|---|---|---|
| 1778053728 | 10.56° C | 99% | 1006 hPa | 0 mm | - | 0 W/m² | - |
| 1778053424 | 10.56° C | 99% | 1006.3 hPa | 1.78 mm | - | 0 W/m² | - |
| 1778053122 | 10.56° C | 99% | 1006.1 hPa | 0 mm | - | 0 W/m² | - |
| 1778052820 | 10.56° C | 99% | 1005.7 hPa | 1.27 mm | - | 0 W/m² | - |
| 1778052516 | 10.56° C | 99% | 1005.5 hPa | 3.05 mm | - | 0 W/m² | - |
| 1778052214 | 10.56° C | 99% | 1005.5 hPa | 4.83 mm | - | 0 W/m² | - |
| 1778051912 | 10.56° C | 99% | 1005.4 hPa | 4.83 mm | - | 0 W/m² | - |
| 1778051610 | 10.56° C | 99% | 1005.8 hPa | 4.32 mm | - | 0 W/m² | - |
| 1778051306 | 10.56° C | 99% | 1006 hPa | 4.32 mm | - | 0 W/m² | - |
| 1778051003 | 11.11° C | 99% | 1005.7 hPa | 6.1 mm | - | 0 W/m² | - |
| 1778050701 | 11.11° C | 99% | 1005.6 hPa | 7.87 mm | - | 0 W/m² | - |
| 1778050398 | 11.11° C | 99% | 1005.6 hPa | 6.1 mm | - | 0 W/m² | - |
| 1778050095 | 11.67° C | 99% | 1005.9 hPa | 0 mm | - | 0 W/m² | - |
| 1778049790 | 11.67° C | 99% | 1005.7 hPa | 0 mm | - | 0 W/m² | - |
| 1778049488 | 11.67° C | 99% | 1005.6 hPa | 0 mm | - | 0 W/m² | - |
| 1778049185 | 11.67° C | 99% | 1005.2 hPa | 1.78 mm | - | 0 W/m² | - |
| 1778048884 | 12.22° C | 99% | 1005 hPa | 3.05 mm | - | 0 W/m² | - |
| 1778048581 | 14.44° C | 99% | 1004.8 hPa | 3.05 mm | - | 0 W/m² | - |
| 1778048276 | 14.44° C | 99% | 1004.9 hPa | 3.05 mm | - | 0 W/m² | - |
| 1778047973 | 14.44° C | 99% | 1005.1 hPa | 3.05 mm | - | 0 W/m² | - |
| 1778047672 | 14.44° C | 99% | 1005 hPa | 1.78 mm | - | 0 W/m² | - |
| 1778047369 | 14.44° C | 99% | 1005.3 hPa | 1.78 mm | - | 0 W/m² | - |
| 1778047065 | 14.44° C | 99% | 1005.1 hPa | 3.05 mm | - | 0 W/m² | - |
| 1778046762 | 14.44° C | 99% | 1005.3 hPa | 7.87 mm | - | 0 W/m² | - |
| 1778046459 | 14.44° C | 99% | 1005.2 hPa | 6.1 mm | - | 0 W/m² | - |
* Rain latest hour (hover to see other rain measurements)
** Current wind speed in m/s (hover to see current wind gust speed)